Date String (YYYY-MM-DD hh:mm:ss) UTC,Instrument flags,Ambient pressure (hPa),Sample flow (lpm),Bypass flow (lpm),Sample temperature (°C),Ambient temperature (°C),ASC tube jacket temperature (°C),LED temperature (°C),Box temperature (°C),Sample RH (%),Span deviation,Mass concentration (μg/m³),Mass concentration (μg/m³),Mass concentration (μg/m³)
DateTimeUTC,F1_M11,P_M11,Q1_M11,Q2_M11,T1_M11,T2_M11,T3_M11,T4_M11,T5_M11,U1_M11,ZSPAN_M11,X0_M11,X2_M11,X1_M11
2022-09-29 09:00:00,,0830.8,5.00,0.00,30.4,28.9,00.0,39.3,32.2,13.9,0000.0,0006.29,0003.46,0003.12
2022-09-29 09:01:00,,0830.8,5.01,0.00,30.4,29.0,00.0,39.3,32.2,13.9,0000.0,0006.38,0003.47,0003.11
2022-09-29 09:02:00,,0830.8,4.99,0.00,30.5,29.0,00.0,39.2,32.2,13.9,0000.0,0006.35,0003.45,0003.10
2022-09-29 09:03:00,,0830.8,5.01,0.00,30.5,29.1,00.0,39.2,32.3,13.9,0000.0,0005.76,0003.43,0003.08
2022-09-29 09:04:00,,0830.7,5.00,0.00,30.5,29.1,00.0,39.2,32.3,13.9,0000.0,0006.01,0003.44,0003.08
2022-09-29 09:05:00,,0830.7,5.00,0.00,30.5,29.1,00.0,39.2,32.3,13.9,0000.0,0006.76,0003.46,0003.08
2022-09-29 09:06:00,,0830.8,5.00,0.00,30.5,29.2,00.0,39.2,32.3,13.9,0000.0,0006.74,0003.45,0003.07
2022-09-29 09:07:00,,0830.8,4.99,0.00,30.5,29.2,00.0,39.3,32.3,13.9,0000.0,0006.72,0003.44,0003.08
2022-09-29 09:08:00,,0830.8,5.01,0.00,30.5,29.2,00.0,39.3,32.3,13.9,0000.0,0006.76,0003.43,0003.09
2022-09-29 09:09:00,,0830.8,5.00,0.00,30.5,29.2,00.0,39.3,32.4,13.9,0000.0,0006.64,0003.40,0003.07
2022-09-29 09:10:00,,0830.7,5.01,0.00,30.6,29.2,00.0,39.3,32.4,13.9,0000.0,0006.61,0003.39,0003.06
2022-09-29 09:11:00,,0830.8,5.01,0.00,30.6,29.3,00.0,39.3,32.4,14.0,0000.0,0007.41,0003.40,0003.04
2022-09-29 09:12:00,,0830.8,5.00,0.00,30.6,29.3,00.0,39.3,32.4,14.0,0000.0,0007.57,0003.42,0003.05
2022-09-29 09:13:00,,0830.8,5.01,0.00,30.6,29.3,00.0,39.3,32.4,14.1,0000.0,0007.59,0003.44,0003.05
2022-09-29 09:14:00,,0830.8,5.00,0.00,30.6,29.3,00.0,39.3,32.4,14.2,0000.0,0007.65,0003.48,0003.07
2022-09-29 09:15:00,,0830.8,5.00,0.00,30.6,29.3,00.0,39.3,32.5,14.2,0000.0,0007.33,0003.52,0003.08
2022-09-29 09:16:00,,0830.7,4.99,0.00,30.6,29.3,00.0,39.4,32.5,14.1,0000.0,0007.03,0003.53,0003.09
2022-09-29 09:17:00,,0830.7,5.01,0.00,30.7,29.4,00.0,39.4,32.5,14.1,0000.0,0007.54,0003.54,0003.12
2022-09-29 09:18:00,,0830.7,5.00,0.00,30.7,29.4,00.0,39.4,32.5,14.1,0000.0,0007.74,0003.57,0003.14
2022-09-29 09:19:00,,0830.7,4.99,0.00,30.7,29.4,00.0,39.4,32.5,13.9,0000.0,0007.90,0003.59,0003.15
2022-09-29 09:20:00,,0830.7,5.00,0.00,30.7,29.4,00.0,39.4,32.5,13.9,0000.0,0008.03,0003.62,0003.17
2022-09-29 09:21:00,,0830.7,4.99,0.00,30.7,29.4,00.0,39.4,32.5,13.9,0000.0,0008.08,0003.66,0003.18
2022-09-29 09:22:00,,0830.7,5.00,0.00,30.7,29.5,00.0,39.4,32.5,13.8,0000.0,0007.97,0003.67,0003.20
2022-09-29 09:23:00,,0830.7,5.00,0.00,30.7,29.5,00.0,39.4,32.6,13.8,0000.0,0007.74,0003.66,0003.21
2022-09-29 09:24:00,,0830.6,5.00,0.00,30.8,29.5,00.0,39.5,32.6,13.8,0000.0,0007.86,0003.68,0003.22
2022-09-29 09:25:00,,0830.6,5.00,0.00,30.8,29.5,00.0,39.5,32.6,13.8,0000.0,0008.11,0003.71,0003.24
2022-09-29 09:26:00,,0830.6,5.00,0.00,30.8,29.5,00.0,39.5,32.6,14.0,0000.0,0008.16,0003.69,0003.24
2022-09-29 09:27:00,,0830.6,5.01,0.00,30.8,29.5,00.0,39.5,32.6,14.2,0000.0,0008.87,0003.69,0003.24
2022-09-29 09:28:00,,0830.6,5.00,0.00,30.8,29.5,00.0,39.5,32.6,14.0,0000.0,0008.64,0003.69,0003.24
2022-09-29 09:29:00,,0830.6,5.01,0.00,30.8,29.5,00.0,39.5,32.6,14.1,0000.0,0008.62,0003.72,0003.23
2022-09-29 09:30:00,,0830.6,5.00,0.00,30.8,29.5,00.0,39.5,32.7,14.2,0000.0,0008.91,0003.75,0003.23
2022-09-29 09:31:00,,0830.6,4.99,0.00,30.8,29.5,00.0,39.5,32.7,14.0,0000.0,0008.73,0003.72,0003.22
2022-09-29 09:32:00,,0830.6,5.01,0.00,30.8,29.6,00.0,39.5,32.6,13.6,0000.0,0008.68,0003.71,0003.22
2022-09-29 09:33:00,,0830.6,4.99,0.00,30.8,29.6,00.0,39.6,32.7,13.7,0000.0,0008.52,0003.69,0003.22
2022-09-29 09:34:00,,0830.7,5.01,0.00,30.9,29.6,00.0,39.6,32.7,13.7,0000.0,0008.45,0003.70,0003.23
2022-09-29 09:35:00,,0830.6,5.00,0.00,30.9,29.5,00.0,39.6,32.7,13.7,0000.0,0008.30,0003.66,0003.23
2022-09-29 09:36:00,,0830.6,4.99,0.00,30.9,29.5,00.0,39.6,32.7,13.8,0000.0,0008.15,0003.63,0003.22
2022-09-29 09:37:00,,0830.6,5.01,0.00,30.9,29.6,00.0,39.6,32.7,13.7,0000.0,0008.37,0003.62,0003.22
2022-09-29 09:38:00,,0830.6,4.99,0.00,30.9,29.4,00.0,39.6,32.7,13.8,0000.0,0008.06,0003.62,0003.24
2022-09-29 09:39:00,,0830.6,5.01,0.00,30.9,27.9,00.0,39.6,32.6,13.8,0000.0,0007.88,0003.64,0003.25
2022-09-29 09:40:00,,0830.6,5.00,0.00,30.8,27.1,00.0,39.5,32.5,13.9,0000.0,0008.12,0003.60,0003.25
2022-09-29 09:41:00,,0830.5,5.01,0.00,30.8,27.2,00.0,39.5,32.4,14.0,0000.0,0007.56,0003.58,0003.25
2022-09-29 09:42:00,,0830.5,5.00,0.00,30.6,27.5,00.0,39.4,32.2,14.0,0000.0,0007.58,0003.62,0003.25
2022-09-29 09:43:00,,0830.6,4.99,0.00,30.6,27.8,00.0,39.4,32.2,14.0,0000.0,0007.70,0003.66,0003.26
2022-09-29 09:44:00,,0830.6,4.99,0.00,30.5,28.1,00.0,39.3,32.1,14.0,0000.0,0008.14,0003.70,0003.26
2022-09-29 09:45:00,,0830.5,5.00,0.00,30.5,28.3,00.0,39.3,32.2,14.1,0000.0,0008.34,0003.73,0003.26
2022-09-29 09:46:00,,0830.6,5.01,0.00,30.5,28.4,00.0,39.3,32.2,14.1,0000.0,0008.69,0003.77,0003.26
2022-09-29 09:47:00,,0830.5,4.99,0.00,30.5,28.6,00.0,39.3,32.2,14.1,0000.0,0008.87,0003.78,0003.26
2022-09-29 09:48:00,,0830.5,5.01,0.00,30.4,28.7,00.0,39.3,32.2,14.1,0000.0,0008.57,0003.79,0003.27
2022-09-29 09:49:00,,0830.5,4.99,0.00,30.4,28.8,00.0,39.3,32.2,14.1,0000.0,0008.35,0003.81,0003.27
2022-09-29 09:50:00,,0830.6,4.99,0.00,30.4,28.8,00.0,39.3,32.2,14.0,0000.0,0008.36,0003.82,0003.27
2022-09-29 09:51:00,,0830.6,5.01,0.00,30.4,28.9,00.0,39.3,32.2,14.0,0000.0,0008.17,0003.88,0003.29
2022-09-29 09:52:00,,0830.6,4.99,0.00,30.4,29.0,00.0,39.3,32.2,14.1,0000.0,0008.30,0003.90,0003.32
2022-09-29 09:53:00,,0830.6,5.01,0.00,30.5,29.0,00.0,39.3,32.3,14.1,0000.0,0008.42,0003.90,0003.34
2022-09-29 09:54:00,,0830.6,4.99,0.00,30.5,29.1,00.0,39.3,32.3,13.9,0000.0,0008.47,0003.92,0003.36
2022-09-29 09:55:00,,0830.6,5.00,0.00,30.5,29.1,00.0,39.3,32.3,13.8,0000.0,0008.29,0003.93,0003.39
2022-09-29 09:56:00,,0830.6,5.01,0.00,30.5,29.1,00.0,39.3,32.3,13.7,0000.0,0008.29,0003.99,0003.44
2022-09-29 09:57:00,,0830.6,5.00,0.00,30.5,29.2,00.0,39.3,32.3,13.8,0000.0,0008.80,0004.02,0003.47
2022-09-29 09:58:00,,0830.6,5.00,0.00,30.5,29.2,00.0,39.3,32.3,13.8,0000.0,0008.37,0004.06,0003.51
2022-09-29 09:59:00,,0830.6,5.00,0.00,30.5,29.2,00.0,39.3,32.4,13.8,0000.0,0008.47,0004.12,0003.55
